User: anonymous   Login
Location: SAPM � Hemmingford
(45.0500°N, 73.5833°W)
Time: 22:17:48
(UTC-04:00)
Language:

Iridium 75 - Orbit

View from above orbital plane
View from above orbital plane
View from above satellite
View from above satellite

Ground track
Ground track

The orbit data is extracted from the following two-line orbital elements,

1 25346U 98032E   15213.47257424  .00000262  00000-0  86358-4 0  9993
2 25346 086.4010 150.7561 0002406 083.7925 052.1708 14.34216267901382
Epoch (UTC): 01 August 2015 11:20:30
Eccentricity: 0.0002406
inclination: 86.4010°
perigee height: 776 km
apogee height: 779 km
right ascension of ascending node: 150.7561°
argument of perigee: 83.7925°
revolutions per day: 14.34216267
mean anomaly at epoch: 52.1708°
orbit number at epoch: 90138

The dashed part of the orbit path shows where the satellite is in the earth's shadow,  

DLR